TimeEDT,TemperatureF,Dew PointF,Humidity,Sea Level PressureIn,VisibilityMPH,Wind Direction,Wind SpeedMPH,Gust SpeedMPH,PrecipitationIn,Events,Conditions,WindDirDegrees,DateUTC
12:15 AM,35.8,32.0,86,30.03,10.0,Calm,Calm,-,N/A,,Scattered Clouds,0,2013-05-14 04:15:00
12:35 AM,35.8,32.9,89,30.03,10.0,Calm,Calm,-,N/A,,Mostly Cloudy,0,2013-05-14 04:35:00
12:54 AM,37.9,32.5,81,30.03,10.0,Calm,Calm,-,N/A,,Overcast,0,2013-05-14 04:54:00
1:15 AM,37.4,33.8,87,30.03,10.0,Calm,Calm,-,N/A,,Overcast,0,2013-05-14 05:15:00
1:35 AM,38.3,33.1,81,30.02,10.0,Calm,Calm,-,N/A,,Overcast,0,2013-05-14 05:35:00
1:54 AM,37.8,32.7,82,30.03,10.0,Calm,Calm,-,N/A,,Overcast,0,2013-05-14 05:54:00
2:15 AM,38.3,33.3,82,30.03,10.0,SSW,3.5,-,N/A,,Overcast,210,2013-05-14 06:15:00
2:35 AM,38.3,31.8,77,30.03,10.0,Calm,Calm,-,N/A,,Overcast,0,2013-05-14 06:35:00
2:54 AM,39.4,31.5,73,30.02,10.0,Calm,Calm,-,N/A,,Overcast,0,2013-05-14 06:54:00
3:15 AM,40.5,30.9,69,30.01,10.0,Calm,Calm,-,N/A,,Overcast,0,2013-05-14 07:15:00
3:35 AM,39.6,32.2,75,30.00,10.0,Calm,Calm,-,N/A,,Light Drizzle,0,2013-05-14 07:35:00
3:54 AM,39.7,32.0,74,29.97,10.0,SE,5.8,-,N/A,,Overcast,130,2013-05-14 07:54:00
4:15 AM,41.0,29.8,64,29.95,10.0,ESE,5.8,-,N/A,,Overcast,110,2013-05-14 08:15:00
4:35 AM,40.5,30.4,67,29.95,10.0,ESE,5.8,-,N/A,,Overcast,110,2013-05-14 08:35:00
4:54 AM,40.1,29.7,66,29.94,10.0,ESE,8.1,-,N/A,,Light Drizzle,120,2013-05-14 08:54:00
5:15 AM,41.0,29.8,64,29.94,10.0,ESE,4.6,-,N/A,,Drizzle,110,2013-05-14 09:15:00
5:35 AM,41.0,30.4,66,29.93,10.0,SE,8.1,-,N/A,Rain,Light Rain,130,2013-05-14 09:35:00
5:54 AM,41.0,30.0,65,29.92,10.0,SE,8.1,-,N/A,,Overcast,130,2013-05-14 09:54:00
6:15 AM,40.6,30.7,68,29.94,10.0,East,6.9,-,N/A,,Overcast,80,2013-05-14 10:15:00
6:35 AM,39.9,31.5,72,29.95,10.0,East,5.8,-,N/A,Rain,Light Rain,100,2013-05-14 10:35:00
6:54 AM,39.6,31.5,73,29.95,10.0,ESE,6.9,-,N/A,,Light Drizzle,110,2013-05-14 10:54:00
7:15 AM,39.6,31.6,73,29.96,10.0,ESE,4.6,-,N/A,,Overcast,110,2013-05-14 11:15:00
7:35 AM,39.7,31.5,72,29.96,10.0,East,6.9,-,N/A,,Overcast,100,2013-05-14 11:35:00
7:54 AM,41.0,30.9,67,29.93,10.0,SE,11.5,-,N/A,,Overcast,130,2013-05-14 11:54:00
8:15 AM,41.5,30.2,64,29.91,10.0,SE,10.4,-,N/A,,Overcast,130,2013-05-14 12:15:00
8:35 AM,42.8,29.8,60,29.90,10.0,SE,11.5,-,N/A,,Overcast,130,2013-05-14 12:35:00
8:54 AM,44.2,30.9,60,29.89,10.0,SE,11.5,-,N/A,,Overcast,130,2013-05-14 12:54:00
9:15 AM,45.9,31.8,58,29.88,10.0,SE,13.8,18.4,N/A,,Overcast,130,2013-05-14 13:15:00
9:35 AM,48.4,32.2,54,29.87,10.0,SE,13.8,21.9,N/A,,Overcast,140,2013-05-14 13:35:00
9:54 AM,48.4,31.8,53,29.86,10.0,SE,13.8,21.9,N/A,,Overcast,130,2013-05-14 13:54:00
10:15 AM,49.6,32.0,51,29.85,10.0,SE,10.4,23.0,N/A,,Overcast,140,2013-05-14 14:15:00
10:35 AM,53.6,34.0,47,29.84,10.0,SE,16.1,19.6,N/A,,Overcast,140,2013-05-14 14:35:00
10:55 AM,53.6,32.5,45,29.83,10.0,SE,16.1,20.7,N/A,,Scattered Clouds,140,2013-05-14 14:55:00
11:15 AM,55.9,33.8,43,29.82,10.0,SE,15.0,23.0,N/A,,Clear,130,2013-05-14 15:15:00
11:35 AM,58.5,34.5,41,29.83,10.0,SSE,13.8,20.7,N/A,,Clear,160,2013-05-14 15:35:00
11:55 AM,58.5,33.8,39,29.84,10.0,SSE,12.7,21.9,N/A,,Clear,160,2013-05-14 15:55:00
12:15 PM,58.5,33.6,39,29.84,10.0,South,12.7,19.6,N/A,,Clear,180,2013-05-14 16:15:00
12:35 PM,59.2,34.3,39,29.84,10.0,SSE,12.7,17.3,N/A,,Clear,150,2013-05-14 16:35:00
12:55 PM,59.9,34.2,38,29.83,10.0,South,11.5,17.3,N/A,,Clear,170,2013-05-14 16:55:00
1:15 PM,60.4,34.2,37,29.83,10.0,SSE,5.8,10.4,N/A,,Clear,160,2013-05-14 17:15:00
1:34 PM,60.1,34.3,38,29.83,10.0,South,8.1,-,N/A,,Clear,170,2013-05-14 17:34:00
1:55 PM,61.0,35.1,38,29.83,10.0,SSE,6.9,-,N/A,,Clear,160,2013-05-14 17:55:00
2:15 PM,61.0,35.1,38,29.82,10.0,SSE,9.2,17.3,N/A,,Clear,150,2013-05-14 18:15:00
2:34 PM,60.4,34.7,38,29.82,10.0,South,5.8,-,N/A,,Clear,170,2013-05-14 18:34:00
2:55 PM,60.8,35.6,39,29.82,10.0,SE,6.9,-,N/A,,Clear,140,2013-05-14 18:55:00
3:15 PM,61.0,35.6,39,29.82,10.0,SSE,3.5,-,N/A,,Clear,150,2013-05-14 19:15:00
3:34 PM,61.5,35.6,38,29.81,10.0,SSE,8.1,-,N/A,,Clear,160,2013-05-14 19:34:00
3:55 PM,62.1,36.7,39,29.80,10.0,ESE,5.8,-,N/A,,Clear,110,2013-05-14 19:55:00
4:15 PM,65.1,37.9,37,29.81,10.0,SSE,9.2,-,N/A,,Clear,150,2013-05-14 20:15:00
4:34 PM,64.6,36.9,36,29.81,10.0,SE,3.5,-,N/A,,Clear,140,2013-05-14 20:34:00
4:55 PM,63.5,36.1,36,29.80,10.0,Calm,Calm,-,N/A,,Clear,0,2013-05-14 20:55:00
5:15 PM,65.3,37.9,36,29.79,10.0,SE,4.6,-,N/A,,Clear,140,2013-05-14 21:15:00
5:34 PM,66.0,38.8,37,29.78,10.0,South,6.9,-,N/A,,Clear,170,2013-05-14 21:34:00
5:55 PM,66.0,39.9,38,29.78,10.0,SSE,6.9,-,N/A,,Clear,160,2013-05-14 21:55:00
6:15 PM,67.8,40.8,37,29.76,10.0,South,8.1,-,N/A,,Clear,170,2013-05-14 22:15:00
6:34 PM,68.4,41.0,37,29.76,10.0,SE,8.1,-,N/A,,Clear,130,2013-05-14 22:34:00
6:55 PM,66.7,40.3,38,29.75,10.0,SE,6.9,-,N/A,,Clear,140,2013-05-14 22:55:00
7:15 PM,66.2,40.3,39,29.75,10.0,SE,8.1,-,N/A,,Clear,140,2013-05-14 23:15:00
7:34 PM,63.5,40.5,43,29.74,10.0,SSE,5.8,-,N/A,,Clear,150,2013-05-14 23:34:00
7:55 PM,62.4,39.6,43,29.73,10.0,SE,11.5,16.1,N/A,,Scattered Clouds,140,2013-05-14 23:55:00
8:14 PM,61.2,39.6,45,29.72,10.0,SE,12.7,20.7,N/A,,Scattered Clouds,140,2013-05-15 00:14:00
8:35 PM,59.0,41.0,51,29.72,10.0,ESE,9.2,-,N/A,,Clear,120,2013-05-15 00:35:00
8:55 PM,58.5,41.9,54,29.71,10.0,SE,10.4,-,N/A,,Scattered Clouds,140,2013-05-15 00:55:00
9:14 PM,57.4,41.7,56,29.71,10.0,SE,8.1,-,N/A,,Clear,130,2013-05-15 01:14:00
9:35 PM,55.9,41.2,58,29.71,10.0,SE,11.5,-,N/A,,Clear,130,2013-05-15 01:35:00
9:55 PM,55.9,42.1,60,29.72,10.0,SE,11.5,-,N/A,,Clear,130,2013-05-15 01:55:00
10:14 PM,55.8,42.3,60,29.72,10.0,SE,11.5,16.1,N/A,,Scattered Clouds,130,2013-05-15 02:14:00
10:35 PM,53.8,41.0,62,29.73,10.0,SSE,6.9,-,N/A,,Scattered Clouds,150,2013-05-15 02:35:00
10:54 PM,53.6,40.8,62,29.73,10.0,SSE,8.1,-,N/A,Rain,Rain,150,2013-05-15 02:54:00
11:15 PM,53.6,42.8,67,29.71,10.0,SSE,6.9,-,N/A,,Scattered Clouds,150,2013-05-15 03:15:00
11:35 PM,53.6,42.4,66,29.71,10.0,SSE,9.2,-,N/A,,Mostly Cloudy,150,2013-05-15 03:35:00
11:54 PM,53.6,43.2,68,29.67,10.0,SE,8.1,11.5,N/A,,Scattered Clouds,130,2013-05-15 03:54:00